Météo par heure à Jurzyn

Ce jour, 20 Juin, Dimanche

Heure Température Précipitation Vent Pression Humidité
00:00 +21°C° 0 mm 3 m/s 752 mmHg 82%
01:00 +20°C° 0 mm 3 m/s 752 mmHg 84%
02:00 +20°C° 0 mm 3 m/s 752 mmHg 86%
03:00 +19°C° 0 mm 3 m/s 752 mmHg 87%
04:00 +19°C° 0 mm 3 m/s 752 mmHg 89%
05:00 +20°C° 0 mm 3 m/s 752 mmHg 83%
06:00 +22°C° 0 mm 4 m/s 752 mmHg 77%
07:00 +23°C° 0 mm 4 m/s 752 mmHg 71%
08:00 +26°C° 0 mm 4 m/s 752 mmHg 64%
09:00 +27°C° 0 mm 4 m/s 752 mmHg 58%
10:00 +28°C° 0 mm 4 m/s 752 mmHg 51%
11:00 +29°C° 0 mm 4 m/s 752 mmHg 49%
12:00 +30°C° 0 mm 4 m/s 751 mmHg 47%
13:00 +30°C° 0 mm 5 m/s 751 mmHg 45%
14:00 +30°C° 0 mm 4 m/s 751 mmHg 46%
15:00 +30°C° 0 mm 4 m/s 750 mmHg 48%
16:00 +30°C° 0 mm 4 m/s 750 mmHg 49%
17:00 +29°C° 0 mm 4 m/s 750 mmHg 57%
18:00 +28°C° 0 mm 4 m/s 750 mmHg 65%
19:00 +26°C° 0 mm 4 m/s 749 mmHg 72%
20:00 +25°C° 0 mm 4 m/s 749 mmHg 78%
21:00 +24°C° 0 mm 3 m/s 750 mmHg 83%
22:00 +22°C° 0 mm 3 m/s 750 mmHg 88%
23:00 +21°C° 0 mm 3 m/s 750 mmHg 90%

Demain, 21 Juin, Lundi

Heure Température Précipitation Vent Pression Humidité
00:00 +21°C° 0 mm 3 m/s 749 mmHg 91%
01:00 +20°C° 0 mm 3 m/s 749 mmHg 92%
02:00 +20°C° 0 mm 3 m/s 749 mmHg 92%
03:00 +20°C° 0 mm 3 m/s 749 mmHg 92%
04:00 +20°C° 0 mm 3 m/s 749 mmHg 92%
05:00 +21°C° 0 mm 4 m/s 749 mmHg 85%
06:00 +22°C° 0 mm 5 m/s 749 mmHg 78%
07:00 +25°C° 0 mm 5 m/s 749 mmHg 71%
08:00 +26°C° 0 mm 6 m/s 749 mmHg 66%
09:00 +27°C° 0 mm 6 m/s 749 mmHg 61%
10:00 +28°C° 0 mm 6 m/s 748 mmHg 56%
11:00 +29°C° 0 mm 6 m/s 748 mmHg 53%
12:00 +30°C° 0 mm 5 m/s 748 mmHg 50%
13:00 +30°C° 0 mm 5 m/s 748 mmHg 47%
14:00 +30°C° 0 mm 5 m/s 747 mmHg 51%
15:00 +29°C° 0 mm 5 m/s 747 mmHg 55%
16:00 +29°C° 0 mm 5 m/s 747 mmHg 59%
17:00 +28°C° 0 mm 4 m/s 747 mmHg 63%
18:00 +27°C° 0 mm 3 m/s 747 mmHg 68%
19:00 +26°C° 0 mm 3 m/s 747 mmHg 73%
20:00 +25°C° 0.1 mm 3 m/s 747 mmHg 78%
21:00 +22°C° 0.1 mm 3 m/s 747 mmHg 84%
22:00 +21°C° 0.1 mm 3 m/s 747 mmHg 89%
23:00 +21°C° 0.4 mm 3 m/s 747 mmHg 91%

Après-demain, 22 Juin, Mardi

Heure Température Précipitation Vent Pression Humidité
00:00 +20°C° 0.4 mm 2 m/s 747 mmHg 93%
01:00 +20°C° 0.4 mm 2 m/s 747 mmHg 94%
02:00 +20°C° 0.3 mm 2 m/s 747 mmHg 95%
03:00 +20°C° 0.3 mm 2 m/s 747 mmHg 95%
04:00 +20°C° 0.3 mm 2 m/s 747 mmHg 96%
05:00 +21°C° 0 mm 2 m/s 747 mmHg 91%
06:00 +23°C° 0 mm 2 m/s 748 mmHg 86%
07:00 +25°C° 0 mm 2 m/s 748 mmHg 81%
08:00 +25°C° 0.7 mm 2 m/s 748 mmHg 80%
09:00 +25°C° 0.7 mm 2 m/s 748 mmHg 79%
10:00 +26°C° 0.7 mm 2 m/s 748 mmHg 79%
11:00 +26°C° 0.4 mm 2 m/s 749 mmHg 77%
12:00 +26°C° 0.4 mm 2 m/s 749 mmHg 76%
13:00 +26°C° 0.4 mm 2 m/s 749 mmHg 75%
14:00 +27°C° 0.5 mm 2 m/s 749 mmHg 71%
15:00 +28°C° 0.5 mm 2 m/s 749 mmHg 67%
16:00 +28°C° 0.5 mm 2 m/s 749 mmHg 63%
17:00 +27°C° 0.4 mm 2 m/s 749 mmHg 69%
18:00 +26°C° 0.4 mm 2 m/s 750 mmHg 76%
19:00 +25°C° 0.4 mm 2 m/s 750 mmHg 82%
20:00 +24°C° 0 mm 2 m/s 750 mmHg 86%
21:00 +22°C° 0 mm 3 m/s 750 mmHg 90%
22:00 +20°C° 0 mm 3 m/s 750 mmHg 94%
23:00 +20°C° 0 mm 3 m/s 750 mmHg 95%

23 Juin, Mercredi

Heure Température Précipitation Vent Pression Humidité
00:00 +19°C° 0 mm 3 m/s 750 mmHg 96%
01:00 +19°C° 0 mm 3 m/s 750 mmHg 98%
02:00 +19°C° 0 mm 3 m/s 750 mmHg 98%
03:00 +18°C° 0 mm 3 m/s 750 mmHg 98%
04:00 +18°C° 0 mm 3 m/s 751 mmHg 98%
05:00 +19°C° 0 mm 3 m/s 751 mmHg 94%
06:00 +21°C° 0 mm 3 m/s 751 mmHg 89%
07:00 +24°C° 0 mm 3 m/s 751 mmHg 85%
08:00 +25°C° 0 mm 3 m/s 751 mmHg 78%
09:00 +27°C° 0 mm 3 m/s 751 mmHg 71%
10:00 +29°C° 0 mm 2 m/s 751 mmHg 65%
11:00 +30°C° 0.1 mm 2 m/s 751 mmHg 62%
12:00 +30°C° 0.1 mm 2 m/s 751 mmHg 59%
13:00 +31°C° 0.1 mm 1 m/s 751 mmHg 57%
14:00 +31°C° 0.5 mm 1 m/s 751 mmHg 58%
15:00 +31°C° 0.5 mm 2 m/s 751 mmHg 59%
16:00 +31°C° 0.5 mm 2 m/s 750 mmHg 60%
17:00 +28°C° 1.8 mm 2 m/s 751 mmHg 69%
18:00 +26°C° 1.8 mm 3 m/s 751 mmHg 77%
19:00 +22°C° 1.8 mm 4 m/s 751 mmHg 86%
20:00 +21°C° 0.4 mm 3 m/s 752 mmHg 88%
21:00 +21°C° 0.4 mm 3 m/s 752 mmHg 91%
22:00 +20°C° 0.4 mm 3 m/s 752 mmHg 93%
23:00 +19°C° 0 mm 3 m/s 752 mmHg 94%

24 Juin, Jeudi

Heure Température Précipitation Vent Pression Humidité
00:00 +18°C° 0 mm 3 m/s 752 mmHg 94%
01:00 +18°C° 0 mm 4 m/s 753 mmHg 95%
02:00 +17°C° 0 mm 3 m/s 753 mmHg 95%
03:00 +16°C° 0 mm 3 m/s 753 mmHg 96%
04:00 +14°C° 0 mm 3 m/s 753 mmHg 96%
05:00 +16°C° 0 mm 3 m/s 753 mmHg 92%
06:00 +17°C° 0 mm 3 m/s 753 mmHg 88%
07:00 +18°C° 0 mm 3 m/s 754 mmHg 84%
08:00 +20°C° 0 mm 3 m/s 754 mmHg 78%
09:00 +21°C° 0 mm 3 m/s 754 mmHg 73%
10:00 +24°C° 0 mm 3 m/s 754 mmHg 67%
11:00 +25°C° 0 mm 3 m/s 754 mmHg 63%
12:00 +26°C° 0 mm 2 m/s 754 mmHg 59%
13:00 +27°C° 0 mm 2 m/s 754 mmHg 55%
14:00 +27°C° 0 mm 1 m/s 753 mmHg 54%
15:00 +28°C° 0 mm 1 m/s 753 mmHg 53%
16:00 +28°C° 0 mm 1 m/s 753 mmHg 52%
17:00 +27°C° 0 mm 1 m/s 753 mmHg 57%
18:00 +26°C° 0 mm 1 m/s 752 mmHg 63%
19:00 +25°C° 0 mm 2 m/s 752 mmHg 68%
20:00 +24°C° 0 mm 2 m/s 752 mmHg 72%
21:00 +22°C° 0 mm 3 m/s 752 mmHg 76%
22:00 +20°C° 0 mm 3 m/s 752 mmHg 79%
23:00 +20°C° 1.2 mm 3 m/s 752 mmHg 85%

25 Juin, Vendredi

Heure Température Précipitation Vent Pression Humidité
00:00 +19°C° 1.2 mm 3 m/s 752 mmHg 90%
01:00 +19°C° 1.2 mm 3 m/s 752 mmHg 95%
02:00 +19°C° 9 mm 4 m/s 751 mmHg 95%
03:00 +19°C° 9 mm 5 m/s 751 mmHg 96%
04:00 +19°C° 9 mm 6 m/s 751 mmHg 96%
05:00 +20°C° 0.2 mm 5 m/s 751 mmHg 92%
06:00 +20°C° 0.2 mm 3 m/s 751 mmHg 88%
07:00 +21°C° 0.2 mm 2 m/s 751 mmHg 83%
08:00 +23°C° 0 mm 2 m/s 751 mmHg 79%
09:00 +24°C° 0 mm 2 m/s 751 mmHg 74%
10:00 +25°C° 0 mm 2 m/s 751 mmHg 70%
11:00 +25°C° 0.3 mm 3 m/s 751 mmHg 74%
12:00 +23°C° 0.3 mm 4 m/s 751 mmHg 78%
13:00 +22°C° 0.3 mm 5 m/s 751 mmHg 82%
14:00 +20°C° 0.2 mm 6 m/s 751 mmHg 84%
15:00 +19°C° 0.2 mm 6 m/s 752 mmHg 86%
16:00 +16°C° 0.2 mm 7 m/s 752 mmHg 87%
17:00 +16°C° 0 mm 6 m/s 753 mmHg 86%
18:00 +15°C° 0 mm 6 m/s 753 mmHg 85%
19:00 +15°C° 0 mm 5 m/s 753 mmHg 85%
20:00 +14°C° 0 mm 4 m/s 753 mmHg 87%
21:00 +14°C° 0 mm 3 m/s 754 mmHg 90%
22:00 +14°C° 0 mm 2 m/s 754 mmHg 93%
23:00 +13°C° 0 mm 2 m/s 754 mmHg 94%
Voir plus

Nous avons besoin de votre consentement

Meteoprog et ses fournisseurs de services peuvent stocker et accéder à des données personnelles telles que des cookies, des identifiants d'appareils ou d'autres technologies similaires sur votre appareil et traiter ces données pour personnaliser le contenu et les publicités, ainsi que pour fournir des fonctionnalités de médias sociaux et analyser le trafic.

  • Stocker et/ou accéder à des informations sur votre appareil

    Des cookies, des identifiants d'appareils ou d'autres informations peuvent être stockés ou accessibles sur votre appareil aux fins indiquées ci-dessus.

  • Annonces et contenus personnalisés, mesure des annonces et des contenus, connaissance de l'audience et développement de produits

    Les annonces et le contenu peuvent être personnalisés en fonction d'un profil. D'autres données peuvent être ajoutées pour mieux personnaliser les annonces et le contenu. Les performances des publicités et du contenu peuvent être mesurées. Il est possible d'obtenir des informations sur le public qui a vu les publicités et le contenu. Ces données peuvent être utilisées pour développer ou améliorer l'expérience de l'utilisateur, les systèmes et les logiciels.

En cliquant sur "J'accepte", vous autorisez l'utilisation de cookies, des identifiants d'appareils, des balises web ou d'autres technologies similaires. Vos paramètres peuvent être modifiés dans le navigateur de votre appareil.

Dans certains cas, des intérêts légitimes peuvent être invoqués plutôt qu'un consentement. Vous pouvez en savoir plus à ce sujet dans notre Politique de confidentialité et de cookies.